TimeCEST,TemperatureF,Dew PointF,Humidity,Sea Level PressureIn,VisibilityMPH,Wind Direction,Wind SpeedMPH,Gust SpeedMPH,PrecipitationIn,Events,Conditions,WindDirDegrees,DateUTC
12:45 AM,42.8,41.0,93,30.01,-9999.0,ESE,1.2,-,N/A,,Clear,110,2012-10-11 22:45:00
1:45 AM,42.8,41.0,93,29.98,-9999.0,Calm,Calm,-,N/A,,Clear,0,2012-10-11 23:45:00
2:00 AM,42,41,95,29.99,12,Calm,Calm,,,,Partly Cloudy,,2012-10-12 00:00:00
2:45 AM,42.8,41.0,93,29.98,-9999.0,SE,3.5,-,N/A,,Clear,140,2012-10-12 00:45:00
4:45 AM,44.6,42.8,93,29.95,-9999.0,ENE,3.5,-,N/A,,Clear,70,2012-10-12 02:45:00
5:45 AM,46.4,42.8,87,29.95,-9999.0,East,5.8,-,N/A,,Clear,100,2012-10-12 03:45:00
6:15 AM,46.4,42.8,87,29.95,-9999.0,East,3.5,-,N/A,,Clear,90,2012-10-12 04:15:00
6:45 AM,46.4,44.6,93,29.98,5.0,ESE,4.6,-,N/A,,Mostly Cloudy,120,2012-10-12 04:45:00
7:15 AM,46.4,44.6,93,29.95,3.1,East,3.5,-,N/A,,Mostly Cloudy,90,2012-10-12 05:15:00
7:45 AM,46.4,44.6,93,29.98,2.8,ESE,4.6,-,N/A,,Mostly Cloudy,120,2012-10-12 05:45:00
8:00 AM,47,45,92,29.97,3,ESE,4.5,,,,Mist,120,2012-10-12 06:00:00
8:15 AM,48.2,46.4,93,29.98,2.8,ESE,2.3,-,N/A,,Mostly Cloudy,110,2012-10-12 06:15:00
8:45 AM,48.2,46.4,93,29.98,2.5,ESE,4.6,-,N/A,,Scattered Clouds,110,2012-10-12 06:45:00
9:15 AM,50.0,48.2,94,29.98,2.8,SE,3.5,-,N/A,,Scattered Clouds,130,2012-10-12 07:15:00
10:45 AM,55.4,48.2,77,29.98,-9999.0,East,8.1,-,N/A,,Clear,100,2012-10-12 08:45:00
11:15 AM,57.2,46.4,67,29.98,-9999.0,East,8.1,-,N/A,,Clear,100,2012-10-12 09:15:00
11:45 AM,59.0,44.6,59,29.98,-9999.0,East,6.9,-,N/A,,Clear,80,2012-10-12 09:45:00
12:45 PM,60.8,42.8,52,29.95,-9999.0,ENE,9.2,-,N/A,,Clear,70,2012-10-12 10:45:00
1:15 PM,60.8,44.6,55,29.95,-9999.0,ENE,9.2,-,N/A,,Clear,60,2012-10-12 11:15:00
1:45 PM,60.8,41.0,48,29.95,-9999.0,ENE,9.2,-,N/A,,Clear,60,2012-10-12 11:45:00
2:00 PM,61,41,36,29.95,19,ENE,8.9,,,,Partly Cloudy,60,2012-10-12 12:00:00
2:15 PM,60.8,41.0,48,29.95,-9999.0,East,8.1,-,N/A,,Clear,90,2012-10-12 12:15:00
2:45 PM,62.6,41.0,45,29.92,-9999.0,ENE,9.2,-,N/A,,Clear,60,2012-10-12 12:45:00
3:15 PM,62.6,41.0,45,29.92,-9999.0,ENE,10.4,-,N/A,,Clear,60,2012-10-12 13:15:00
4:15 PM,60.8,41.0,48,29.92,-9999.0,ENE,8.1,-,N/A,,Clear,70,2012-10-12 14:15:00
4:45 PM,60.8,39.2,45,29.92,-9999.0,ENE,6.9,-,N/A,,Clear,70,2012-10-12 14:45:00
5:45 PM,59.0,42.8,55,29.92,-9999.0,NNE,4.6,-,N/A,,Clear,30,2012-10-12 15:45:00
6:15 PM,59.0,44.6,59,29.92,-9999.0,NNE,3.5,-,N/A,,Clear,30,2012-10-12 16:15:00
6:45 PM,57.2,42.8,59,29.92,-9999.0,NNE,5.8,-,N/A,,Clear,20,2012-10-12 16:45:00
7:15 PM,57.2,42.8,59,29.92,6.2,NNE,5.8,-,N/A,,Overcast,20,2012-10-12 17:15:00
7:45 PM,55.4,42.8,63,29.92,-9999.0,North,5.8,-,N/A,,Clear,10,2012-10-12 17:45:00
8:00 PM,56,42,50,29.92,19,North,6.7,,,,Partly Cloudy,10,2012-10-12 18:00:00
8:15 PM,55.4,44.6,67,29.92,-9999.0,NNE,6.9,-,N/A,,Clear,20,2012-10-12 18:15:00
8:45 PM,55.4,44.6,67,29.92,-9999.0,NNE,5.8,-,N/A,,Clear,30,2012-10-12 18:45:00
9:15 PM,55.4,42.8,63,29.92,-9999.0,NNE,6.9,-,N/A,,Clear,30,2012-10-12 19:15:00
9:25 PM,55.4,42.8,63,29.92,6.2,NNE,6.9,-,N/A,Rain,Light Rain,30,2012-10-12 19:25:00
9:45 PM,55.4,44.6,67,29.92,6.2,NNE,6.9,-,N/A,Rain,Light Rain,20,2012-10-12 19:45:00
10:45 PM,53.6,44.6,72,29.95,6.2,NNE,5.8,-,N/A,Rain,Light Rain,20,2012-10-12 20:45:00
11:45 PM,51.8,46.4,82,29.95,6.2,NNE,6.9,-,N/A,Rain,Light Rain,20,2012-10-12 21:45:00